Погода в Городище

Украина / Луганская область     49°03′19″N   39°38′56″E
темп.,
°C
ветер,
м/с
пор.,
м/с
влажн.,
%
обл.,
%
осадки,
мм/ч
давл.,
гПа
погр.,
м
6 мая, чт
чт600:00+9ююв33565 0.0 101733
03:00+8ю2263100 0.0 101714
06:00+8ююв356699 0.0 101797
09:00+14ююв5954100 0.0 1016789
12:00+17ююв6845100 0.0 10151760
15:00+19ю6740100 0.0 10132165
18:00+17ююв4754100 0.0 1013304
21:00+13ююв3666100 0.0 1013100
7 мая, пт
пт700:00+12ю347378 0.0 101354
03:00+11ююз227796 0.0 101321
06:00+12зсз2375100 0.0 101572
09:00+15ссз4466100 0.0 1015614
12:00+17с326255 0.1 10161104
15:00+19сз3353100 0.3 10161709
18:00+17св456553 0.0 1015387
21:00+13в227891 0.0 101614
8 мая, сб
сб800:00+14юв367499 0.0 1016147
03:00+12ююв3679100 0.0 1015123
06:00+12ю31072100 0.0 1015277
09:00+17ююз695897 0.0 1014764
12:00+21ююз7949100 0.0 10131786
15:00+21ю8947100 0.0 10111669
18:00+20ююз6105531 0.0 1010884
21:00+15юз496894 0.0 1011159
9 мая, вс
вс900:00+11ссз5895100 0.0 1011312
03:00+10с71283100 0.0 1012749
06:00+8с91478100 0.1 1012770
09:00+6с101692100 6.2 1012878
12:00+3с132095100 11.9 1012833
15:00+2ссз122297100 22.1 1012931
18:00+3ссз91999100 13.4 10151035
21:00+5ссз111997100 18.0 10151181
10 мая, пн
пн1000:00+5сз4118839 0.1 1021343
03:00+5зсз6158199 0.1 1021434
06:00+6сз61478100 0.0 1021445
09:00+10ссз81358100 0.0 10211726
12:00+9ссз101567100 0.6 10191668
15:00+7ссз101586100 2.4 10191248
18:00+5сз81295100 0.5 1017910
21:00+6ссз61193100 0.9 1015598